VE-0176 weather

San Antonio de Maturín Heliport
San Antonio , Monagas, Venezuela

Public forecast

Using degrees Celsius for public forecast. Weather courtesy of forecast.io.

Closest aviation weather report (METAR) to San Antonio de Maturín Heliport

Report is more than 6 hours old.

Closest report is Cumaná (Antonio José de Sucre) Airport, 31.6 nm (58.5 km) NW. Retrieved 2019/06/24 18:04 UTC (10 months ago):

SVCU 241804Z 10025KT 9999 CB/NE

Closest aviation forecast (TAF) to San Antonio de Maturín Heliport

Forecast is more than 6 hours old.

Closest forecast is Del Caribe Santiago Mariño International Airport, 50.0 nm (92.6 km) NNW. Retrieved 2020/04/10 12:05 UTC (7 hours ago):

TAF SVMG 101000Z 1012/1112 15002KT 9999 BKN016 TX31/19Z TN24/09Z TEMPO 1012/1016 270G15KT 9999 SCT016 BKN070